星链-2392 (STARLINK-2392 )

导读 | 星芒AI

STARLINK-2392 是 SpaceX Starlink 项目中的一颗低轨通信卫星,属于第二代星链卫星群。该卫星旨在为全球用户提供高速、低延迟的互联网服务,尤其在偏远和网络基础设施薄弱的地区。它运行在约 550 公里的轨道高度,采用先进推进系统和激光通信技术,以提升连接效率和系统稳定性。作为星链计划的重要组成部分,STARLINK-2392 有助于扩大全球宽带覆盖范围,推动数字包容性发展。

基本信息
目录编号:
47811
目录名称:
STARLINK-2392
国际标识:
2021-018AA
轨道中心:
EARTH
卫星名称:
星链-2392
卫星全名:
星链-2392 (STARLINK-2392 )
卫星状态:
已陨落 最后检测时间 2025-01-07
发射日期:
2021-03-11 UTC
国别 :
美国 (US)
星等 :
--
轨道信息
数据来源 国际轨道数据
星历时间: 2025-01-07T22:50:03+0800
轨道信息已过期343天
半长轴: 6526.806km
偏心率: 0.0013355
轨道倾角: 53.047°
近地点辐角 183.405°
升交点赤经 326.008°
平近点角 337.661°
近地点: 139.954km
远地点: 157.388km
周期: 87.460分钟
每日圈数: 16.46462
详细信息
固有亮度:
5
最大亮度:
2.5
卫星平台:
Starlink V1.0
覆盖范围:
全球
运营商:
太空探索技术公司
运营商所在国:
美国
制造商(研发单位):
太空探索技术公司
制造商所在国:
美国
使用方式:
暂无
卫星简介
星链(Starlink)计划是由太空探索技术公司(SpaceX)提出的一个巨型低轨卫星互联网星座项目,计划在2019年至2024年间在太空搭建由约1.2万颗卫星组成的“星链”网络,其中1584颗将部署在地球上空550千米处的近地轨道,并从2020年开始工作。该卫星仍在工作。